SCP
0 0 0 0 0 0 0 0 0 0 0 0 0 0 0 0 0 0 0 0 0 0 0 0 0 0 0 0 0 0 0 0 0 0 0 0 0 0 0 0 0 0 0
0 0 0 0 0 0 0 0 0 0 0 0 0 0 0 0 0 0 0 0 0 0 0 0 0 0 0 0 0 0 0 0 0 0 0 0 0 0 0 0 0 0 0
0 0 0 0 0 0 0 0 0 0 0 0 0 0 0 0 0 0 0 0 0 0 0 0 0 0 0 0 0 0 0 0 0 0 0 0 0 0 0 0 0 0 0
0 0 0 0 0 0 0 0 0 0 0 0 0 0 0 0 0 0 0 0 0 0 0 0 0 0 0 0 0 0 0 0 0 0 0 0 0 0 0 0 0 0 0
0 0 0 0 0 0 0 0 0 0 0 0 0 0 0 0 0 0 0 0 0 0 0 0 0 0 0 0 0 0 0 0 0 0 0 0 0 0 0 0 0 0 0
0 0 0 0 0 0 0 0 0 0 0 0 0 0 0 0 0 0 0 0 0 0 0 0 0 0 0 0 0 0 0 0 0 0 0 0 0 0 0 0 0 0 0
0 0 0 0 0 0 0 0 0 0 0 0 0 0 0 0 0 0 0 0 0 0 0 0 0 0 0 0 0 0 0 0 0 0 0 0 0 0 0 0 0 0 0
0 0 0 0 0 0 0 0 0 0 0 0 0 0 0 0 0 0 0 0 0 0 0 0 0 0 0 0 0 0 0 0 0 0 0 0 0 0 0 0 0 0 0
0 0 0 0 0 0 0 0 0 0 0 0 0 0 0 0 0 0 0 0 0 0 0 0 0 0 0 0 0 0 0 0 0 0 0 0 0 0 0 0 0 0 0
0 0 0 0 0 0 0 0 0 0 0 0 0 0 0 0 0 0 0 0 0 0 0 0 0 0 0 0 0 0 0 0 0 0 0 0 0 0 0 0 0 0 0
1 0 0 0 0 0 0 0 0 0 0 0 0 0 0 0 0 0 0 0 0 0 0 0 0 0 0 0 0 0 0 0 0 0 0 0 0 0 0 0 0 0 0
1 1 0 0 0 0 0 0 0 0 0 0 0 0 0 0 0 0 0 0 0 0 0 0 0 0 0 0 0 0 0 0 0 0 0 0 0 0 0 0 0 0 0
1 1 1 1 1 0 0 0 0 0 0 0 0 0 0 0 0 0 0 0 0 0 0 0 0 0 0 0 0 0 0 0 0 0 0 0 0 0 0 0 0 0 0
1 1 1 1 1 0 0 0 0 0 0 0 0 0 0 0 0 0 0 0 0 0 0 0 0 0 0 0 0 0 0 0 0 0 0 0 0 0 0 0 0 0 0
0 1 1 1 1 0 0 0 0 0 0 0 0 0 0 0 0 0 0 0 0 0 0 0 0 0 0 0 0 0 0 0 0 0 0 0 0 0 0 0 0 0 0
1 1 1 1 1 1 1 0 0 0 0 0 0 0 0 0 0 0 0 0 0 0 0 0 0 0 0 0 0 0 0 0 0 0 0 0 0 0 0 0 0 0 0
1 1 1 1 1 1 1 1 1 0 0 0 0 0 0 0 0 0 0 0 0 0 0 0 0 0 0 0 0 0 0 0 0 0 0 0 0 0 0 0 0 0 0
1 1 1 1 1 1 1 1 1 1 1 1 1 1 1 0 0 0 0 0 0 0 0 0 0 0 0 0 0 0 0 0 0 0 0 0 0 0 0 0 0 0 0
1 1 1 1 1 1 1 1 1 1 1 1 1 1 1 1 1 1 0 0 0 0 0 0 0 0 0 0 0 0 0 0 0 0 0 0 0 0 0 0 0 0 0
1 1 1 1 1 1 1 1 1 1 1 1 1 1 1 1 1 1 0 0 0 0 0 0 0 0 0 0 0 0 0 0 0 0 0 0 0 0 0 0 0 0 0
1 1 1 1 1 1 1 1 1 1 1 1 1 1 1 1 1 0 0 0 0 0 0 0 0 0 0 0 0 0 0 0 0 0 0 0 0 0 0 0 0 0 0
2 2 1 1 1 1 1 1 1 1 1 1 1 1 1 0 0 0 0 0 0 0 0 0 0 0 0 0 0 0 0 0 0 0 0 0 0 0 0 0 0 0 0
2 2 2 1 1 1 0 0 0 1 1 1 1 1 1 0 0 0 0 0 0 0 0 0 0 0 0 0 0 0 0 0 0 0 0 0 0 0 0 0 0 0 0
2 2 2 1 1 1 0 0 0 0 1 1 1 1 1 0 0 0 0 0 0 0 0 0 0 0 0 0 0 0 0 0 0 0 0 0 0 0 0 0 0 0 0
2 2 2 1 1 1 0 0 0 0 1 1 1 1 0 0 0 0 0 0 0 0 0 0 0 0 0 0 0 0 0 0 0 0 0 0 0 0 0 0 0 0 0
2 2 2 1 1 1 0 0 0 0 1 1 1 0 0 0 0 0 0 0 0 0 0 0 0 0 0 0 0 0 0 0 0 0 0 0 0 0 0 0 0 0 0
Wind_Speed
2 2 1 1 3 3 3 2 2 2 2 1 2 1 1 2 3 5 5 12 12 11 11 11 11 10 10 9 9 9 8 8 7 7 7 7 7 7 7 7 6 6 5
2 2 2 1 1 2 2 2 3 2 2 1 1 1 1 1 2 4 6 8 11 11 12 12 11 11 11 11 10 10 9 9 9 8 8 8 8 7 8 7 7 7 6
2 2 1 2 1 1 1 1 2 2 2 2 1 1 1 1 2 3 5 5 7 10 11 11 11 11 11 12 11 11 10 10 9 9 9 8 8 8 8 8 8 8 7
3 2 1 2 1 1 1 1 1 1 1 1 1 1 1 1 2 2 3 4 5 6 9 12 12 11 11 12 12 12 11 11 10 10 10 10 9 9 9 9 9 8 7
3 2 2 2 2 1 1 1 1 1 1 1 1 2 1 2 2 3 3 3 4 4 5 10 13 12 12 12 13 13 13 12 11 11 11 11 11 10 10 10 10 9 9
2 2 2 2 2 1 1 1 1 1 1 1 2 1 1 1 2 2 2 2 2 4 4 5 7 9 13 12 11 12 12 12 13 13 13 13 12 12 11 11 11 10 10
2 2 1 1 1 1 1 1 1 1 1 1 0 1 1 1 1 1 1 1 1 1 2 3 5 4 6 10 10 10 11 11 11 11 12 12 12 12 12 12 11 11 12
3 3 2 1 1 1 1 1 1 1 1 1 1 1 0 1 1 1 1 2 2 1 2 3 3 3 3 4 5 9 9 9 10 10 10 10 10 9 10 11 11 11 11
3 2 3 2 1 1 1 2 1 1 1 1 1 1 1 1 1 1 1 1 2 1 1 1 2 2 3 2 3 5 7 7 8 9 10 10 9 9 9 9 9 10 11
3 2 2 2 1 0 1 2 2 1 1 1 1 1 1 1 1 1 0 0 1 1 1 1 1 2 2 2 3 4 5 5 6 7 8 9 9 8 8 8 9 9 10
3 3 3 2 2 1 1 0 1 1 1 1 1 1 1 1 2 2 1 1 1 1 1 1 1 1 2 2 2 3 4 4 4 5 6 6 6 7 6 6 7 7 7
3 3 3 3 2 2 1 1 1 1 1 1 1 1 1 1 1 1 1 1 1 1 1 1 1 1 1 2 2 4 5 5 4 3 3 4 4 5 5 5 5 5 5
3 3 4 3 3 2 2 2 2 1 2 2 2 2 1 2 1 1 1 1 1 1 1 1 1 1 2 2 2 4 4 5 5 4 3 2 3 3 4 4 4 4 4
3 3 4 4 3 3 3 3 2 3 2 2 2 2 2 2 1 1 1 1 1 1 1 1 1 1 2 2 2 4 3 4 5 4 4 3 2 2 2 2 2 2 2
2 3 3 3 3 3 2 2 2 2 1 2 1 1 1 2 1 1 1 2 2 2 2 1 1 1 1 2 4 3 3 4 4 4 4 4 3 3 3 2 2 1 1
1 2 3 3 3 3 3 2 2 2 1 1 1 0 1 2 2 1 1 2 1 2 1 0 1 1 1 2 4 3 3 5 4 5 5 4 4 4 3 2 2 2 1
3 3 3 3 3 3 2 2 2 1 1 1 1 1 1 1 1 2 2 1 1 0 1 1 0 1 1 2 3 2 2 3 3 5 6 6 5 4 4 3 2 2 2
4 4 3 3 3 3 2 2 2 2 2 1 1 0 1 1 1 2 2 1 1 1 1 1 1 1 1 2 3 2 2 2 2 5 7 7 6 5 4 4 3 3 2
4 4 4 3 3 2 2 2 2 1 1 0 0 0 1 1 1 1 2 1 1 1 1 2 2 1 1 1 2 1 1 1 2 3 6 6 6 6 5 4 4 3 3
4 3 3 3 3 2 2 2 2 1 1 1 0 0 0 1 1 2 1 1 1 1 1 1 1 1 1 1 1 1 1 1 1 2 2 4 5 6 6 5 4 4 3
5 4 3 3 3 3 2 1 2 2 2 1 1 1 1 1 0 1 1 1 1 1 1 1 1 1 1 1 2 2 1 1 1 1 2 2 2 2 3 4 4 4 3
4 4 4 3 3 2 3 3 1 1 1 1 1 1 2 2 1 1 1 1 1 1 1 1 1 1 2 1 1 1 2 1 1 1 1 1 2 2 2 2 4 5 4
4 4 4 4 3 3 3 3 1 1 1 1 1 2 2 0 1 1 1 1 2 3 3 2 2 2 1 2 2 2 2 2 1 2 1 1 1 2 2 3 6 6 5
5 4 4 4 4 3 3 2 0 2 1 1 1 1 0 1 1 2 2 2 1 1 2 2 2 2 1 1 2 3 2 2 1 1 1 1 1 1 2 3 7 8 6
4 5 5 4 4 4 4 3 2 2 2 2 1 0 0 0 2 2 1 1 1 1 0 1 3 3 2 2 2 1 1 1 1 1 1 1 1 1 1 2 4 8 8
4 4 4 4 4 3 4 3 2 3 3 2 2 1 1 1 1 1 1 1 2 1 1 0 1 2 2 3 4 3 2 1 1 1 1 1 1 0 1 1 2 4 4
Wind_Direction
142 145 160 173 185 170 171 193 201 163 168 203 214 174 146 144 125 131 147 165 167 171 174 179 183 185 188 190 191 192 195 196 193 192 192 191 191 192 192 192 192 193 193
144 154 168 197 221 182 177 182 188 167 190 206 208 201 187 147 147 147 150 168 178 180 183 187 191 194 197 198 200 202 204 203 201 200 199 199 200 201 202 200 200 201 201
145 162 181 203 224 191 178 193 184 174 198 196 199 219 207 195 184 169 160 170 180 189 190 193 195 199 203 205 206 208 209 208 207 207 207 207 207 207 208 208 207 208 209
167 182 185 207 205 208 195 199 210 194 203 197 214 224 203 191 200 195 190 184 178 184 196 201 201 203 206 209 209 211 211 210 209 211 212 213 212 212 213 213 213 214 214
174 187 197 188 199 214 197 220 175 179 190 203 240 232 218 193 200 212 199 192 186 180 181 196 202 203 207 213 215 216 215 213 213 215 217 218 218 217 217 217 218 219 219
190 197 204 195 206 185 161 140 150 185 199 217 247 259 263 221 200 203 212 200 185 189 187 179 191 206 211 214 216 217 218 217 217 218 219 220 222 221 219 220 221 223 224
192 211 250 166 200 178 177 184 171 197 212 201 214 323 295 276 220 185 187 178 198 186 170 176 183 190 198 210 216 215 215 218 220 222 223 223 225 225 223 221 223 226 226
191 201 208 207 182 184 193 213 186 225 244 196 191 186 260 298 304 242 166 173 193 191 200 199 178 185 186 176 198 213 219 221 227 229 227 225 226 226 225 224 223 225 222
194 216 169 205 221 174 177 199 192 201 242 249 220 175 189 205 323 286 216 183 180 189 208 215 181 169 174 155 155 193 207 218 227 231 227 224 224 224 223 222 224 223 222
189 187 178 178 209 181 171 204 161 201 230 247 253 238 229 180 190 254 270 247 222 207 206 212 190 148 142 134 142 150 181 208 227 231 227 223 223 223 224 227 232 231 229
185 183 176 177 168 186 176 163 108 181 217 243 249 250 253 262 229 211 237 243 280 263 204 193 170 127 137 150 152 139 147 177 207 222 225 222 222 222 225 226 229 233 234
181 182 179 176 176 191 188 192 201 218 231 258 277 276 243 247 251 230 223 234 240 255 210 171 163 147 151 122 125 135 148 160 173 182 197 213 218 223 228 232 234 237 237
174 181 182 176 182 190 195 194 185 232 236 240 252 269 273 268 267 241 216 231 256 262 226 197 181 149 145 119 122 132 146 151 152 158 168 189 211 223 225 228 234 239 244
176 171 173 177 187 196 205 179 202 213 212 228 246 249 268 272 281 245 221 210 247 251 244 214 162 145 134 129 129 136 133 143 151 158 161 159 164 173 187 197 209 217 225
183 164 172 181 186 201 215 184 199 216 195 221 251 260 263 276 284 291 254 225 219 235 242 218 191 152 137 131 142 137 119 136 146 153 156 156 152 146 139 137 141 141 141
178 168 178 187 192 197 199 195 196 199 203 212 221 279 293 302 310 313 281 263 255 238 234 220 223 172 151 146 134 132 124 138 154 154 153 149 143 141 141 141 139 132 119
184 191 196 196 186 186 186 180 190 196 199 211 245 227 253 292 321 318 317 299 284 162 210 244 100 106 130 131 127 143 150 159 148 155 159 153 147 145 140 135 131 128 121
191 192 189 187 184 176 177 177 192 197 197 212 225 307 310 301 294 297 299 298 291 251 204 219 216 206 177 152 150 168 167 153 144 162 165 162 158 155 145 136 129 119 109
186 185 177 178 174 174 177 169 175 185 183 165 165 243 289 304 285 281 279 291 278 277 217 204 211 196 165 152 153 166 140 131 154 150 161 166 169 166 156 148 132 121 114
178 178 174 167 158 161 164 159 163 174 178 161 133 185 288 294 290 282 269 276 275 269 240 203 183 170 158 170 160 173 162 153 156 139 137 155 172 172 159 149 143 136 133
177 164 160 157 160 169 169 179 194 193 195 207 206 190 146 124 82 305 292 285 279 276 263 223 191 169 176 173 188 194 180 161 170 141 141 161 164 162 163 158 156 153 151
171 162 165 169 178 170 121 122 193 195 196 223 232 220 186 166 158 196 233 254 236 241 267 251 225 212 205 191 196 198 178 174 210 174 160 199 165 152 146 146 158 160 161
176 173 170 173 162 140 133 125 112 228 199 234 283 294 288 337 146 257 239 233 236 231 231 238 249 248 215 197 191 197 191 193 203 187 160 202 160 162 165 155 158 165 172
181 180 180 178 164 158 154 137 290 215 202 207 231 278 316 344 342 313 247 217 206 224 243 228 221 243 229 211 195 203 194 180 156 142 136 191 197 202 165 162 176 179 186
186 183 180 180 170 163 164 167 210 222 200 204 204 163 166 262 343 341 266 230 199 210 268 207 196 195 195 187 166 155 179 169 197 193 147 192 212 233 188 180 187 189 194
187 186 182 173 173 167 168 175 202 231 211 196 182 156 111 147 62 30 255 243 234 239 253 244 207 202 198 187 180 183 192 198 211 205 170 177 198 162 249 206 191 191 204